Hourly Data Report for September 05, 2010

IQALUIT CLIMATE
NUNAVUT

63°44'50.000" N
68°32'40.000" W
33.50 m
2402592
71321
XFB

Download Data

Hourly Data (September 2010)
Hourly Data Report for September 5, 2010
TIME
LST
Temp Definition
°C
Dew Point Definition
°C
Rel Hum Definition
%
Precip. Amount Definition
mm

Wind Dir Definition
10's deg

Wind Spd Definition
km/h
Visibility Definition
km
Stn Press Definition
kPa
Hmdx Definition


Wind Chill Definition


Weather Definition


00:00 6.1 3.3 82   13 4   101.40     LegendNANA
01:00 4.2 1.7 84   24 4   101.38     LegendNANA
02:00 3.3 2.1 92   28 6   101.43     LegendNANA
03:00 1.6 0.3 91   3 4   101.46     LegendNANA
04:00 2.2 0.8 90   35 4   101.45     LegendNANA
05:00 3.2 0.3 81     0   101.45     LegendNANA
06:00 4.9 2.6 85   5 2   101.47     LegendNANA
07:00 6.8 1.3 68   22 2   101.48     LegendNANA
08:00 7.1 1.8 69   21 6   101.48     LegendNANA
09:00 7.0 1.5 68   22 6   101.48     LegendNANA
10:00 8.0 1.7 64   13 7   101.46     LegendNANA
11:00 9.1 1.6 59   20 6   101.40     LegendNANA
12:00 9.3 1.6 59   21 6   101.37     LegendNANA
13:00 9.5 1.7 58   23 6   101.33     LegendNANA
14:00 10.1 3.8 65   21 6   101.28     LegendNANA
15:00 11.4 2.0 52   25 6   101.24     LegendNANA
16:00 9.3 5.2 76   15 6   101.26     LegendNANA
17:00 7.4 4.3 81   15 6   101.29     LegendNANA
18:00 6.5 3.0 78   16 4   101.35     LegendNANA
19:00 5.9 2.3 78     0   101.42     LegendNANA
20:00 4.9 1.5 79   31 4   101.45     LegendNANA
21:00 4.9 2.0 81   32 4   101.47     LegendNANA
22:00 4.7 1.6 80   31 2   101.50     LegendNANA
23:00 3.3 1.4 87   36 6   101.52     LegendNANA

Notes on Data Quality.

Legend

  • E = Estimated
  • M = Missing
  • NA = Not Available*
  • [empty] = Indicates an unobserved value
Date modified: